Location: Home
(42.5358°N, 72.7383°W)
Time: 20:56:04
(UTC-05:00)

Vanguard 2 - Pass Details

Date: 01 December 2021
Orbit: 553 x 2936 km, 32.9° (Epoch: 20 January)

Event Time Altitude Azimuth Distance (km) Brightness Sun altitude
Rises 16:21:06 0° 258° (WSW) 3,584 12.7 -1.2°
Reaches altitude 10° 16:23:23 10° 251° (WSW) 2,869 12.4 -1.6°
Maximum altitude 16:30:05 43° 182° (S) 1,933 9.9 -2.7°
Drops below altitude 10° 16:40:57 10° 117° (ESE) 4,601 11.1 -4.5°
Sets 16:45:39 0° 112° (ESE) 5,972 11.7 -5.2°
